Weather Roundup
Issued by NWS Chicago, IL

Home | Current Version | Previous Version | Graphics & Text | Print | Product List | Glossary On
Versions: 1 2 3 4 5 6 7 8 9 10 11 12 13 14 15 16 17 18 19 20 21 22 23 24 25 26 27 28 29 30 31 32 33 34 35 36 37 38 39 40 41 42 43 44 45 46 47 48 49 50
000
NZUS59 KLOT 250806
HRRLOT

CHICAGO AREA WEATHER ROUNDUP
NATIONAL WEATHER SERVICE CHICAGO/ROMEOVILLE IL
300 AM CDT FRI JUL 25 2014

NOTE: "FAIR" INDICATES FEW OR NO CLOUDS BELOW 12,000 FEET WITH NO
SIGNIFICANT WEATHER AND/OR OBSTRUCTIONS TO VISIBILITY.

* THESE STATIONS ARE NOT UNDER NWS QUALITY CONTROL. THEY ALSO MAY NOT
  REPORT WEATHER SUCH AS PRECIPITATION OR FOG.

ILZ005-006-012>014-019>023-250900-
NORTHEAST ILLINOIS

CITY           SKY/WX    TMP DP  RH WIND       PRES   REMARKS
OHARE          CLEAR     56  47  71 CALM      30.06F
MIDWAY         CLEAR     62  51  67 SW5       30.07R
AURORA         CLEAR     52  48  86 CALM      30.07F
JOLIET*        CLEAR     51  49  93 CALM      30.08F
WAUKEGAN       PTCLDY    56  49  77 SW3       30.05F
DUPAGE AIRPORT CLEAR     56  50  80 CALM      30.06F
WHEELING       CLEAR     59  49  69 S3        30.08S
KANKAKEE*      CLEAR     53  51  94 CALM      30.09R
MORRIS*        CLEAR     54  52  95 CALM      30.06F
LEWIS AIRPORT* CLEAR     53  48  83 S3        30.07F
NORTHERLY IS   NOT AVBL
$$

WIZ051-052-058>065-066-070>072-250900-
SOUTHEAST WISCONSIN

CITY           SKY/WX    TMP DP  RH WIND       PRES   REMARKS
MILWAUKEE      PTCLDY    60  45  57 SW7       30.04F
KENOSHA*       MOCLDY    57  49  74 SW3       30.05F
RACINE*        MOCLDY    59  49  69 SW6       30.06F
BURLINGTON     PTCLDY    49  47  93 SW5       30.04F
WAUKESHA       CLEAR     55  45  67 S5        30.05F
WEST BEND      PTCLDY    55  43  62 S3        30.03F
$$

INZ001>003-010>013-019-020-250900-
NORTHWEST INDIANA

CITY           SKY/WX    TMP DP  RH WIND       PRES   REMARKS
GARY*          CLEAR     52  51  95 CALM      30.09R
MICHIGAN CITY* NOT AVBL
RENSSELAER*    NOT AVBL
VALPARAISO     CLEAR     50  49  96 CALM      30.09R
$$

LMZ740>746-250900-
SOUTHERN LAKE MICHIGAN

STATION/POSITION TIME  SKY/WX   TEMP WIND        PRES    VSBY
                                AIR  DIR/SP/G
                 (UTC)          (F)  (DEG/KT/KT) (MB)    (MI)
HARRISON CRIB    0800            65  200/ 10/ 11   N/A
BURNHAM HARBOR   NOT AVBL
CALUMET HARBOR   0800            60  210/  2/  4 1017.1F
BURNS HARBOR     NOT AVBL
MICHIGAN CITY    0800            58  210/  1/  2   N/A
$$

ABBREVIATIONS USED IN REMARKS
   TC - TEMPERATURE IN CELSIUS
  WCI - WIND CHILL INDEX
   HX - HEAT INDEX
  VSB - VISIBILITY
$$



USA.gov is the U.S. government's official web portal to all federal, state and local government web resources and services.